Moriarty, NM

12:47 AM MDT on June 28, 2017 (GMT -0600)
Moriarty

Weather History for K0E0 - May, 2013

Change the Weather History Date:

Tuesday, May 28, 2013

  Actual Average (KABQ) Record (KABQ)
Temperature  
Mean Temperature 59 °F -  
Max Temperature 82 °F 84 °F 97 °F (1951)
Min Temperature 36 °F 54 °F 38 °F (1916)
Degree Days  
Heating Degree Days 6    
Growing Degree Days 9 (Base 50)    
Moisture  
Dew Point 11 °F    
Average Humidity 14    
Maximum Humidity 32    
Minimum Humidity 6    
Precipitation  
Precipitation 0.00 in - - ()
Sea Level Pressure  
Sea Level Pressure 29.89 in    
Wind  
Wind Speed 6 mph (SSW)    
Max Wind Speed 25 mph    
Max Gust Speed 33 mph    
Visibility 10 miles    
Events      
Averages and records for this station are not official NWS values.
T = Trace of Precipitation, MM = Missing Value Source: NWS Daily Summary

Daily Weather History Graph

Daily Weather History Graph

Search for Another Location

Airport or City:

Trip Planner

Search our weather history database for the weather conditions in past years. The results will help you decide how hot, cold, wet, or windy it might be!

Date:

Astronomy

May. 28, 2013 Rise Set
Actual Time 5:52 AM MDT 8:10 PM MDT
Civil Twilight 5:23 AM MDT 8:39 PM MDT
Nautical Twilight 4:48 AM MDT 9:15 PM MDT
Astronomical Twilight 4:09 AM MDT 9:53 PM MDT
Moon 11:41 PM MDT 9:40 AM MDT
Length of Visible Light 15h 15m
Length of Day
14h 17m
Waning Gibbous, 82% of the Moon is Illuminated
May 28
Waning Gibbous
May 31
Last Quarter
Jun 8
New
Jun 16
First Quarter
Jun 23
Full

Hourly Weather History & Observations

Time (MDT) Temp. Windchill Dew Point Humidity Pressure Visibility Wind Dir Wind Speed Gust Speed Precip Events Conditions
12:15 AM 58.8 °F - 14.2 °F 17% 29.99 in 10.0 mi Calm Calm - N/A   Clear
12:35 AM 57.0 °F - 14.7 °F 19% 29.98 in 10.0 mi Calm Calm - N/A   Clear
12:55 AM 57.7 °F - 15.6 °F 19% 29.98 in 10.0 mi SSW 3.5 mph - N/A   Clear
1:15 AM 53.8 °F - 14.9 °F 22% 29.98 in 10.0 mi South 3.5 mph - N/A   Clear
1:35 AM 55.2 °F - 15.4 °F 21% 29.98 in 10.0 mi Calm Calm - N/A   Clear
1:55 AM 53.6 °F - 15.3 °F 22% 29.98 in 10.0 mi Calm Calm - N/A   Clear
2:15 AM 44.8 °F 41.0 °F 10.9 °F 25% 29.98 in 10.0 mi ENE 6.9 mph - N/A   Clear
2:35 AM 49.3 °F - 13.3 °F 24% 29.96 in 10.0 mi ENE 3.5 mph - N/A   Clear
2:55 AM 45.7 °F 43.4 °F 12.0 °F 26% 29.96 in 10.0 mi East 4.6 mph - N/A   Clear
3:15 AM 47.7 °F - 12.4 °F 24% 29.96 in 10.0 mi ESE 4.6 mph - N/A   Clear
3:35 AM 42.8 °F - 11.1 °F 28% 29.96 in 10.0 mi Calm Calm - N/A   Clear
3:55 AM 44.2 °F 42.7 °F 12.0 °F 27% 29.96 in 10.0 mi SW 3.5 mph - N/A   Clear
4:15 AM 40.1 °F - 9.0 °F 28% 29.96 in 10.0 mi Calm Calm - N/A   Clear
4:35 AM 43.5 °F - 11.8 °F 28% 29.96 in 10.0 mi Calm Calm - N/A   Clear
4:55 AM 41.2 °F - 9.0 °F 27% 29.96 in 10.0 mi Calm Calm - N/A   Clear
5:15 AM 36.7 °F - 7.0 °F 29% 29.96 in 10.0 mi Calm Calm - N/A   Clear
5:35 AM 36.5 °F 31.0 °F 8.8 °F 32% 29.96 in 10.0 mi ENE 6.9 mph - N/A   Clear
5:55 AM 38.5 °F - 9.3 °F 30% 29.96 in 10.0 mi Calm Calm - N/A   Clear
6:15 AM 39.7 °F 37.6 °F 11.1 °F 31% 29.96 in 10.0 mi SSW 3.5 mph - N/A   Clear
6:35 AM 42.8 °F 40.1 °F 11.8 °F 28% 29.97 in 10.0 mi South 4.6 mph - N/A   Clear
6:55 AM 45.5 °F 44.2 °F 10.4 °F 24% 29.98 in 10.0 mi ESE 3.5 mph - N/A   Clear
7:15 AM 54.0 °F - 15.4 °F 22% 29.98 in 10.0 mi SSE 8.1 mph - N/A   Clear
7:35 AM 59.0 °F - 15.8 °F 19% 29.97 in 10.0 mi South 3.5 mph - N/A   Clear
7:55 AM 61.7 °F - 15.6 °F 17% 29.96 in 10.0 mi South 4.6 mph - N/A   Clear
8:15 AM 64.4 °F - 15.4 °F 15% 29.96 in 10.0 mi South 6.9 mph - N/A   Clear
8:35 AM 65.7 °F - 15.8 °F 15% 29.96 in 10.0 mi South 6.9 mph - N/A   Clear
8:55 AM 66.2 °F - 16.0 °F 14% 29.96 in 10.0 mi South 4.6 mph - N/A   Clear
9:15 AM 68.2 °F - 16.0 °F 14% 29.96 in 10.0 mi South 5.8 mph - N/A   Clear
9:35 AM 70.2 °F - 16.3 °F 13% 29.96 in 10.0 mi South 5.8 mph - N/A   Clear
9:55 AM 71.8 °F - 15.3 °F 12% 29.95 in 10.0 mi SSE 4.6 mph - N/A   Clear
10:15 AM 73.4 °F - 14.7 °F 11% 29.95 in 10.0 mi South 3.5 mph - N/A   Clear
10:35 AM 75.2 °F - 14.5 °F 10% 29.94 in 10.0 mi South 8.1 mph 18.4 mph N/A   Clear
10:55 AM 76.1 °F - 14.4 °F 10% 29.94 in 10.0 mi SSW 8.1 mph - N/A   Clear
11:15 AM 75.2 °F - 13.5 °F 10% 29.92 in 10.0 mi NNW 6.9 mph - N/A   Clear
11:35 AM 77.7 °F - 13.5 °F 9% 29.92 in 10.0 mi WSW 4.6 mph - N/A   Clear
11:55 AM 79.5 °F - 9.5 °F 7% 29.92 in 10.0 mi SSW 18.4 mph 26.5 mph N/A   Clear
12:15 PM 80.4 °F - 9.5 °F 7% 29.90 in 10.0 mi SW 19.6 mph 24.2 mph N/A   Clear
12:35 PM 80.6 °F - 11.1 °F 7% 29.90 in 10.0 mi South 11.5 mph 19.6 mph N/A   Clear
12:55 PM 81.9 °F - 9.9 °F 7% 29.88 in 10.0 mi South 17.3 mph 23.0 mph N/A   Clear
1:15 PM 81.9 °F - 8.8 °F 6% 29.88 in 10.0 mi South 19.6 mph 23.0 mph N/A   Clear
1:35 PM 81.7 °F - 8.2 °F 6% 29.87 in 10.0 mi South 17.3 mph 33.4 mph N/A   Clear
1:55 PM 81.3 °F - 7.9 °F 6% 29.86 in 10.0 mi SSW 25.3 mph 33.4 mph N/A   Clear
2:15 PM 82.4 °F - 8.6 °F 6% 29.86 in 10.0 mi South 16.1 mph 26.5 mph N/A   Clear
2:35 PM 81.9 °F - 8.2 °F 6% 29.86 in 10.0 mi SSW 16.1 mph 27.6 mph N/A   Clear
2:55 PM 80.8 °F - 8.2 °F 6% 29.86 in 10.0 mi SW 16.1 mph 24.2 mph N/A   Clear
3:15 PM 80.2 °F - 7.3 °F 6% 29.85 in 10.0 mi SW 12.7 mph 28.8 mph N/A   Clear
3:35 PM 81.0 °F - 7.0 °F 6% 29.84 in 10.0 mi SSW 16.1 mph 23.0 mph N/A   Clear
3:55 PM 81.0 °F - 7.0 °F 6% 29.83 in 10.0 mi SW 11.5 mph 19.6 mph N/A   Clear
4:15 PM 81.1 °F - 5.9 °F 6% 29.81 in 10.0 mi West 6.9 mph - N/A   Clear
4:35 PM 81.7 °F - 7.2 °F 6% 29.81 in 10.0 mi WSW 9.2 mph 20.7 mph N/A   Clear
4:55 PM 79.7 °F - 6.8 °F 6% 29.80 in 10.0 mi SW 16.1 mph 24.2 mph N/A   Clear
5:15 PM 79.2 °F - 6.8 °F 6% 29.80 in 10.0 mi West 9.2 mph 16.1 mph N/A   Clear
5:35 PM 78.8 °F - 7.5 °F 7% 29.79 in 10.0 mi WSW 6.9 mph - N/A   Clear
5:55 PM 79.5 °F - 7.9 °F 6% 29.78 in 10.0 mi West 6.9 mph - N/A   Clear
6:15 PM 80.1 °F - 8.4 °F 7% 29.78 in 10.0 mi SSW 8.1 mph - N/A   Clear
6:35 PM 78.6 °F - 7.2 °F 6% 29.77 in 10.0 mi SSW 10.4 mph - N/A   Clear
6:55 PM 77.9 °F - 7.0 °F 7% 29.76 in 10.0 mi SSW 12.7 mph - N/A   Clear
7:15 PM 77.4 °F - 7.0 °F 7% 29.76 in 10.0 mi SSW 8.1 mph - N/A   Clear
7:35 PM 75.7 °F - 7.0 °F 7% 29.76 in 10.0 mi SW 11.5 mph - N/A   Clear
7:55 PM 72.3 °F - 7.5 °F 8% 29.76 in 10.0 mi South 5.8 mph - N/A   Clear
8:15 PM 68.9 °F - 6.6 °F 9% 29.76 in 10.0 mi SSW 8.1 mph - N/A   Clear
8:35 PM 66.9 °F - 7.7 °F 10% 29.76 in 10.0 mi SSE 3.5 mph - N/A   Clear
8:55 PM 66.2 °F - 7.5 °F 10% 29.75 in 10.0 mi SSE 4.6 mph - N/A   Clear
9:15 PM 63.1 °F - 7.3 °F 11% 29.76 in 10.0 mi Calm Calm - N/A   Clear
9:35 PM 62.1 °F - 4.1 °F 10% 29.76 in 10.0 mi West 6.9 mph - N/A   Clear
9:55 PM 59.7 °F - 4.6 °F 11% 29.79 in 10.0 mi West 11.5 mph - N/A   Clear
10:15 PM 67.1 °F - 10.6 °F 11% 29.80 in 10.0 mi West 18.4 mph - N/A   Clear
10:35 PM 68.9 °F - 13.1 °F 12% 29.81 in 10.0 mi West 16.1 mph - N/A   Clear
10:55 PM 68.7 °F - 13.5 °F 12% 29.81 in 10.0 mi West 12.7 mph 23.0 mph N/A   Clear
11:15 PM 68.0 °F - 13.5 °F 12% 29.82 in 10.0 mi West 16.1 mph - N/A   Clear
11:35 PM 67.5 °F - 12.9 °F 12% 29.82 in 10.0 mi West 16.1 mph - N/A   Clear
11:55 PM 68.0 °F - 13.6 °F 12% 29.82 in 10.0 mi West 13.8 mph - N/A   Clear